Location: Grandview
(34.8900°N, 117.1058°W)
Time: 08:25:06
(UTC-07:00)

Envisat - Pass Details

Date: 08 October 2017
Orbit: 764 x 766 km, 98.2° (Epoch: 22 October)

Event Time Altitude Azimuth Distance (km) Brightness Sun altitude
Exits shadow 19:21:38 13° 60° (ENE) 2,070 4.7 -13.0°
Drops below altitude 10° 19:23:41 10° 36° (NE) 2,305 5.2 -13.4°
Sets 19:27:09 0° 11° (N) 3,235 6.2 -14.1°
